Location: Umburanas
(4.5000°S, 37.9667°W)
Time: 20:51:51
(UTC+00:00)

Cosmos 1812 - Pass Details

Date: 19 November 2019
Orbit: 518 x 521 km, 82.5° (Epoch: 12 December)

Event Time Altitude Azimuth Distance (km) Brightness Sun altitude
Rises 22:07:38 0° 188° (S) 2,644 6.7 -24.1°
Reaches altitude 10° 22:09:47 10° 190° (S) 1,753 5.8 -24.6°
Enters shadow 22:12:50 52° 214° (SW) 652 3.4 -25.3°
